Flag for Liberia Weather past 2 weeks in Gbarnga, Liberia

Now
75 °F

Thunderstorms. Partly sunny.


Feels Like: 74 °F
Forecast: N/A
Wind: No wind

Location: Roberts Field

Current Time: Sep 16, 2014 at 5:48:51 PM

Latest Report: Sep 16, 2014 at 5:00 PM


Visibility: 4 mi

Pressure: 29.89 "Hg

Humidity: 94%

Dew point: 73 °F

Location of GbarngaLocation

Historic Weather in Gbarnga — Graph

°F

Gbarnga temperature yesterday

Maximum temperature yesterday: 82 °F (at 10:00 AM)
Minimum temperature yesterday: 75 °F (at 12:00 AM)
Average temperature yesterday: 79 °F

Past Weeks' High & Low Weather Summary

 TemperatureHumidityPressure
High86 °F (Sep 4, 2:00 PM)100% (Sep 16, 7:30 AM)30.04 "Hg (Sep 16, 7:30 AM)
Low72 °F (Sep 2, 11:00 AM)66% (Sep 8, 2:30 PM)29.83 "Hg (Sep 12, 5:30 PM)
Average78 °F89%29.93 "Hg
* Reported Sep 2 11:00 AM — Sep 16 4:30 PM, Gbarnga, Weather by CustomWeather, © 2014

Note: Actual official high and low records may vary slightly from our data, if they occured in-between our weather recording intervals... More about our weather records

Advertising

Gbarnga weather history for previous 24 hours

 ConditionsComfort  
Time TempWeatherWind HumidityBarometerVisibility
4:30 PM
Sep 16
77 °FThunderstorms. Partly sunny.No wind94%29.92 "Hg4 mi
4:00 PM77 °FRain. Partly sunny.6 mph94%29.92 "Hg4 mi
3:30 PM77 °FPartly sunny.No wind94%29.92 "HgN/A
3:00 PM79 °FPartly sunny.6 mph89%29.92 "HgN/A
2:30 PM77 °FThunderstorms. Partly sunny.10 mph94%29.92 "HgN/A
2:00 PM75 °FThunderstorms. Partly sunny.9 mph94%29.92 "HgN/A
1:00 PM77 °FThunderstorms. Partly sunny.8 mph94%29.95 "HgN/A
12:30 PM77 °FThunderstorms. Partly sunny.7 mph94%29.95 "HgN/A
12:00 PM77 °FThunderstorms. Partly sunny.No wind94%29.98 "Hg6 mi
11:30 AM75 °FThunderstorms. Partly sunny.8 mph94%29.98 "Hg3 mi
11:00 AM79 °FThunderstorms. Partly sunny.7 mph94%29.98 "Hg3 mi
10:00 AM77 °FLight rain. Partly sunny.No wind94%29.98 "Hg6 mi
9:30 AM77 °FThunderstorms. Partly sunny.No wind94%29.98 "Hg6 mi
9:00 AM75 °FThunderstorms. Partly sunny.No wind94%29.98 "Hg6 mi
8:30 AM75 °FThunderstorms. Partly sunny.3 mph94%29.95 "Hg5 mi
8:00 AM73 °FLight rain. More clouds than sun.No wind100%29.95 "Hg5 mi
7:30 AM73 °FHeavy rain. Mostly cloudy.No wind100%29.95 "Hg2 mi
7:00 AM75 °FRain. Mostly cloudy.No wind94%29.95 "Hg4 mi
6:00 AM75 °FLight rain. Passing clouds.No wind94%29.92 "Hg5 mi
4:00 AM75 °FStrong thunderstorms. Mostly cloudy.No wind94%29.89 "Hg1 mi
3:30 AM75 °FThunderstorms. Partly cloudy.No wind94%29.89 "Hg5 mi
3:00 AM75 °FThunderstorms. Mostly cloudy.No wind94%29.89 "Hg2 mi
2:00 AM77 °FPassing clouds.5 mph94%29.92 "HgN/A
1:30 AM77 °FPassing clouds.No wind94%29.92 "HgN/A
1:00 AM77 °FPassing clouds.No wind94%29.95 "HgN/A
12:30 AM77 °FPassing clouds.3 mph94%29.95 "HgN/A
12:00 AM77 °FPassing clouds.No wind94%29.95 "HgN/A
11:30 PM
Sep 15
77 °FPassing clouds.No wind94%29.95 "HgN/A
11:00 PM77 °FPassing clouds.No wind94%29.95 "HgN/A
10:00 PM77 °FPassing clouds.No wind94%29.95 "HgN/A
8:30 PM77 °FPassing clouds.No wind94%29.95 "HgN/A
8:00 PM77 °FPassing clouds.No wind94%29.92 "HgN/A
7:30 PM79 °FPartly sunny.3 mph89%29.92 "HgN/A
7:00 PM79 °FPartly sunny.3 mph89%29.92 "HgN/A
6:30 PM79 °FThunderstorms. Scattered clouds.6 mph89%29.92 "HgN/A
6:00 PM79 °FThunderstorms. Scattered clouds.5 mph89%29.89 "HgN/A
5:00 PM79 °FThunderstorms. Partly sunny.5 mph94%29.89 "Hg6 mi
Weather by CustomWeather, © 2014

See weather overviewHow to use our weather pages